Location: Sungai Bunut
(2.6333°N, 113.7333°E)
Time: 11:42:41
(UTC+00:00)

Cosmos 1697 Rocket - Pass Details

Date: 16 October 2021
Orbit: 834 x 842 km, 71.0° (Epoch: 28 November)

Event Time Altitude Azimuth Distance (km) Brightness Sun altitude
Rises 21:34:27 0° 330° (NNW) 3,367 5.5 -9.3°
Reaches altitude 10° 21:37:01 10° 323° (NW) 2,435 4.7 -8.7°
Maximum altitude 21:42:11 40° 255° (WSW) 1,214 3.1 -7.4°
Drops below altitude 10° 21:47:23 10° 187° (S) 2,440 5.2 -6.1°
Sets 21:49:58 0° 179° (S) 3,376 6.0 -5.5°
